Home   Weather   Cottbus   Past weeks

Flag for Germany Past Weather in Cottbus, Brandenburg, Germany — Yesterday and Last 2 Weeks

Now
54 °F

Passing clouds.


Feels Like: 49 °F
Forecast: 42 / 60 °F
Wind: 16 mph from Southeast

Location: Holzdorf

Current Time: Apr 30, 2017 at 1:32:09 pm

Latest Report: Apr 30, 2017 at 12:20 pm


Visibility: N/A

Pressure: 30.12 "Hg

Humidity: 38%

Dew Point: 28 °F

Location of CottbusLocation

Past Weather in Cottbus — Graph

°F

Cottbus Temperature Yesterday

Maximum temperature yesterday: 52 °F (at 3:20 pm)
Minimum temperature yesterday: 32 °F (at 11:20 pm)
Average temperature yesterday: 45 °F

High & Low Weather Summary for the Past Weeks

 TemperatureHumidityPressure
High57 °F (Apr 24, 3:20 pm)100% (Apr 18, 12:20 am)30.57 "Hg (Apr 18, 12:20 am)
Low25 °F (Apr 20, 5:20 am)36% (Apr 24, 3:20 pm)29.59 "Hg (Apr 25, 5:20 am)
Average43 °F69%30.06 "Hg
* Reported Apr 15 12:20 pm — Apr 30 12:20 pm, Cottbus, Weather by CustomWeather, © 2017

Note: Actual official high and low records may vary slightly from our data, if they occured in-between our weather recording intervals... More about our weather records

Advertising

Cottbus Weather History for the Previous 24 Hours

Scroll right to see more
 ConditionsComfort  
Time TempWeatherWind HumidityBarometerVisibility
12:20 pm
Sun, Apr 30
54 °FPassing clouds.16 mph38%30.12 "HgN/A
11:20 am54 °FPassing clouds.14 mph44%30.15 "HgN/A
10:20 am50 °FPassing clouds.16 mph54%30.15 "HgN/A
9:20 am48 °FPassing clouds.14 mph58%30.15 "HgN/A
8:20 am43 °FQuite cool.6 mph71%30.15 "HgN/A
7:20 am36 °FChilly.2 mph81%30.15 "HgN/A
6:20 am27 °FChilly.3 mph93%30.15 "HgN/A
5:20 am27 °FChilly.2 mph93%30.15 "HgN/A
4:20 am27 °FChilly.1 mph93%30.15 "HgN/A
3:20 am27 °FChilly.3 mph100%30.12 "HgN/A
2:20 am27 °FChilly.1 mph100%30.12 "HgN/A
1:20 am28 °FChilly.1 mph93%30.12 "HgN/A
12:20 am30 °FChilly.1 mph86%30.12 "HgN/A
11:20 pm
Sat, Apr 29
32 °FChilly.1 mph87%30.12 "HgN/A
10:20 pm34 °FChilly.2 mph81%30.09 "HgN/A
9:20 pm39 °FPassing clouds.3 mph65%30.09 "HgN/A
8:20 pm43 °FPassing clouds.2 mph57%30.07 "HgN/A
7:20 pm50 °FPassing clouds.7 mph43%30.07 "HgN/A
6:20 pm50 °FPartly sunny.8 mph40%30.07 "HgN/A
5:20 pm52 °FPartly sunny.9 mph38%30.04 "HgN/A
4:20 pm52 °FPartly sunny.9 mph38%30.04 "HgN/A
3:20 pm52 °FBroken clouds.12 mph38%30.04 "HgN/A
2:20 pm50 °FPartly sunny.13 mph47%30.04 "HgN/A
1:20 pm50 °FScattered clouds.10 mph47%30.04 "HgN/A
Weather by CustomWeather, © 2017

See weather overviewHow to use our weather pages